Location: Unspecified
(41.1637°N, 24.2901°E)
Time: 17:41:21
(UTC+01:00)

ISS - Pass Details

Date: 23 January 2020
Orbit: 415 x 421 km, 51.6° (Epoch: 18 January)

Event Time Altitude Azimuth Distance (km) Brightness Sun altitude
Rises 17:35:04 0° 242° (WSW) 2,355 1.8 -12.7°
Reaches altitude 10° 17:37:11 10° 246° (WSW) 1,494 0.5 -13.1°
Maximum altitude 17:40:30 59° 327° (NNW) 486 -3.4 -13.7°
Enters shadow 17:42:24 23° 41° (NE) 948 -2.4 -14.1°
